User: anonymous   Login
Location: Passau
(48.5830°N, 13.4830°E)
Time: 18:29:54
(UTC+01:00)
Language:

SPROUT - Orbit

View from above orbital plane
View from above orbital plane
View from above satellite
View from above satellite

Ground track
Ground track

The orbit data is extracted from the following two-line orbital elements,

1 39770U 14029E   21337.05411712  .00001847  00000-0  20250-3 0  9991
2 39770  97.9298  88.3594 0008755  22.2050 337.9540 14.88956259408421
Epoch (UTC): 03 December 2021 01:17:55
Eccentricity: 0.0008755
inclination: 97.9298°
perigee height: 595 km
apogee height: 607 km
right ascension of ascending node: 88.3594°
argument of perigee: 22.2050°
revolutions per day: 14.88956259
mean anomaly at epoch: 337.9540°
orbit number at epoch: 40842

The dashed part of the orbit path shows where the satellite is in the earth's shadow,  

DLR